| time (UTC) | temp F | wind direction | speed MPH | gust MPH | rain 1hr in | rain 24hr in | rain mn in | humidity % | barometer mb |
| 20260507032636 | 52 | 24 | 4.0 | 7.0 | 0.00 | 0.00 | 0.00 | 60 | 866.8 |
| 20260507031635 | 52 | 24 | 3.0 | 8.0 | 0.00 | 0.00 | 0.00 | 60 | 866.8 |
| 20260507030636 | 52 | 27 | 4.0 | 11.0 | 0.00 | 0.00 | 0.00 | 60 | 866.8 |
| 20260507025632 | 51 | 35 | 4.0 | 7.0 | 0.00 | 0.00 | 0.00 | 62 | 866.7 |
| 20260507024633 | 52 | 67 | 6.0 | 9.0 | 0.00 | 0.00 | 0.00 | 61 | 866.7 |
| 20260507023632 | 53 | 73 | 6.0 | 9.0 | 0.00 | 0.00 | 0.00 | 60 | 866.8 |
| 20260507022632 | 53 | 99 | 5.0 | 8.0 | 0.00 | 0.00 | 0.00 | 58 | 866.8 |
| 20260507021633 | 54 | 76 | 5.0 | 9.0 | 0.00 | 0.00 | 0.00 | 57 | 866.9 |
| 20260507020633 | 55 | 50 | 6.0 | 12.0 | 0.00 | 0.00 | 0.00 | 56 | 867.0 |
| 20260507015633 | 55 | 46 | 6.0 | 11.0 | 0.00 | 0.00 | 0.00 | 55 | 867.0 |
| 20260507014633 | 56 | 74 | 7.0 | 11.0 | 0.00 | 0.00 | 0.00 | 53 | 867.1 |
| 20260507014106 | 57 | 77 | 8.0 | 11.0 | 0.00 | 0.00 | 0.00 | 52 | 867.1 |
| 20260507012632 | 57 | 54 | 8.0 | 11.0 | 0.00 | 0.00 | 0.00 | 51 | 867.2 |
| 20260507012113 | 58 | 51 | 9.0 | 13.0 | 0.00 | 0.00 | 0.00 | 49 | 867.2 |
| 20260507010632 | 59 | 51 | 9.0 | 12.0 | 0.00 | 0.00 | 0.00 | 48 | 867.3 |
| 20260507005632 | 60 | 52 | 9.0 | 13.0 | 0.00 | 0.00 | 0.00 | 47 | 867.4 |
| 20260507005114 | 60 | 110 | 9.0 | 14.0 | 0.00 | 0.00 | 0.00 | 46 | 867.4 |
| 20260507003629 | 61 | 72 | 9.0 | 14.0 | 0.00 | 0.00 | 0.00 | 46 | 867.5 |
| 20260507002628 | 61 | 47 | 9.0 | 15.0 | 0.00 | 0.00 | 0.00 | 45 | 867.5 |
| 20260507002603 | 62 | 48 | 8.0 | 15.0 | 0.00 | 0.00 | 0.00 | 45 | 867.6 |
| 20260507001109 | 62 | 60 | 9.0 | 14.0 | 0.00 | 0.00 | 0.00 | 45 | 867.6 |
| 20260506235629 | 62 | 52 | 9.0 | 14.0 | 0.00 | 0.00 | 0.00 | 44 | 867.6 |
| 20260506235551 | 63 | 53 | 6.0 | 11.0 | 0.00 | 0.00 | 0.00 | 43 | 867.7 |
| 20260506233627 | 62 | 101 | 8.0 | 15.0 | 0.00 | 0.00 | 0.00 | 45 | 867.6 |
| 20260506232627 | 61 | 68 | 8.0 | 12.0 | 0.00 | 0.00 | 0.00 | 45 | 867.6 |
| 20260506232104 | 63 | 49 | 5.0 | 12.0 | 0.00 | 0.00 | 0.00 | 44 | 867.6 |
| 20260506231104 | 64 | 190 | 5.0 | 13.0 | 0.00 | 0.00 | 0.00 | 42 | 867.9 |
| 20260506230116 | 64 | 74 | 7.0 | 13.0 | 0.00 | 0.00 | 0.00 | 42 | 867.8 |
| 20260506224628 | 63 | 61 | 5.0 | 11.0 | 0.00 | 0.00 | 0.00 | 44 | 867.7 |
| 20260506223625 | 63 | 120 | 6.0 | 12.0 | 0.00 | 0.00 | 0.00 | 43 | 867.7 |
| 20260506222624 | 63 | 220 | 5.0 | 12.0 | 0.00 | 0.00 | 0.00 | 42 | 867.8 |
| 20260506221624 | 63 | 65 | 7.0 | 13.0 | 0.00 | 0.00 | 0.00 | 43 | 867.8 |
| 20260506220625 | 63 | 79 | 5.0 | 11.0 | 0.00 | 0.00 | 0.00 | 43 | 867.8 |
| 20260506215625 | 63 | 108 | 6.0 | 13.0 | 0.00 | 0.00 | 0.00 | 44 | 867.8 |
| 20260506214623 | 63 | 38 | 6.0 | 14.0 | 0.00 | 0.00 | 0.00 | 43 | 867.7 |
| 20260506213623 | 63 | 53 | 6.0 | 14.0 | 0.00 | 0.00 | 0.00 | 44 | 867.8 |
| 20260506212624 | 64 | 57 | 5.0 | 14.0 | 0.00 | 0.00 | 0.00 | 44 | 867.8 |
| 20260506211623 | 63 | 236 | 5.0 | 12.0 | 0.00 | 0.00 | 0.00 | 44 | 867.8 |
| 20260506210624 | 63 | 55 | 5.0 | 13.0 | 0.00 | 0.00 | 0.00 | 47 | 867.7 |
| 20260506205624 | 63 | 77 | 7.0 | 12.0 | 0.00 | 0.00 | 0.00 | 45 | 867.8 |
| 20260506204624 | 62 | 103 | 5.0 | 11.0 | 0.00 | 0.00 | 0.00 | 49 | 867.7 |
| 20260506203620 | 62 | 13 | 7.0 | 15.0 | 0.00 | 0.00 | 0.00 | 48 | 867.6 |
| 20260506202620 | 61 | 73 | 6.0 | 18.0 | 0.00 | 0.01 | 0.00 | 50 | 867.7 |
| 20260506201620 | 61 | 60 | 7.0 | 17.0 | 0.00 | 0.01 | 0.00 | 49 | 867.6 |
| 20260506200620 | 61 | 84 | 7.0 | 14.0 | 0.00 | 0.01 | 0.00 | 49 | 867.7 |
| 20260506195621 | 60 | 61 | 7.0 | 13.0 | 0.00 | 0.01 | 0.00 | 50 | 867.7 |
| 20260506194621 | 59 | 79 | 7.0 | 15.0 | 0.00 | 0.01 | 0.00 | 52 | 867.4 |
| 20260506194059 | 59 | 77 | 8.0 | 15.0 | 0.00 | 0.01 | 0.00 | 53 | 867.5 |
| 20260506192620 | 60 | 154 | 5.0 | 12.0 | 0.00 | 0.01 | 0.00 | 50 | 867.5 |
| 20260506191619 | 58 | 158 | 7.0 | 13.0 | 0.00 | 0.02 | 0.00 | 53 | 867.3 |
| 20260506190619 | 58 | 71 | 7.0 | 15.0 | 0.00 | 0.02 | 0.00 | 54 | 867.4 |
| 20260506185620 | 58 | 156 | 9.0 | 16.0 | 0.00 | 0.02 | 0.00 | 53 | 867.4 |
| 20260506184620 | 58 | 73 | 8.0 | 13.0 | 0.00 | 0.02 | 0.00 | 54 | 867.4 |
| 20260506184107 | 58 | 82 | 6.0 | 14.0 | 0.00 | 0.02 | 0.00 | 54 | 867.3 |
| 20260506182615 | 58 | 83 | 5.0 | 14.0 | 0.00 | 0.02 | 0.00 | 55 | 867.3 |
| 20260506181615 | 58 | 102 | 4.0 | 10.0 | 0.00 | 0.02 | 0.00 | 54 | 867.3 |
| 20260506180615 | 57 | 77 | 5.0 | 12.0 | 0.00 | 0.02 | 0.00 | 56 | 867.3 |
| 20260506175615 | 56 | 43 | 7.0 | 14.0 | 0.00 | 0.02 | 0.00 | 56 | 867.2 |
| 20260506174615 | 57 | 92 | 6.0 | 12.0 | 0.00 | 0.02 | 0.00 | 55 | 867.2 |
| 20260506173615 | 57 | 224 | 6.0 | 14.0 | 0.00 | 0.02 | 0.00 | 55 | 867.3 |
| 20260506172615 | 57 | 162 | 7.0 | 15.0 | 0.00 | 0.02 | 0.00 | 55 | 867.2 |
| 20260506171616 | 58 | 132 | 5.0 | 12.0 | 0.00 | 0.02 | 0.00 | 53 | 867.4 |
| 20260506170616 | 57 | 220 | 6.0 | 13.0 | 0.00 | 0.02 | 0.00 | 55 | 867.3 |
| 20260506165616 | 57 | 42 | 7.0 | 14.0 | 0.00 | 0.02 | 0.00 | 55 | 867.3 |
| 20260506164616 | 58 | 271 | 4.0 | 12.0 | 0.00 | 0.02 | 0.00 | 52 | 867.4 |
| 20260506163616 | 57 | 321 | 5.0 | 13.0 | 0.00 | 0.03 | 0.00 | 53 | 867.3 |
| 20260506162612 | 57 | 248 | 5.0 | 13.0 | 0.00 | 0.04 | 0.00 | 53 | 867.3 |
| 20260506161613 | 56 | 99 | 5.0 | 17.0 | 0.00 | 0.04 | 0.00 | 53 | 867.3 |
| 20260506160613 | 55 | 60 | 6.0 | 16.0 | 0.00 | 0.04 | 0.00 | 56 | 867.1 |
| 20260506155613 | 55 | 80 | 9.0 | 15.0 | 0.00 | 0.04 | 0.00 | 57 | 867.1 |
| 20260506154613 | 54 | 128 | 7.0 | 14.0 | 0.00 | 0.05 | 0.00 | 58 | 867.1 |
| 20260506153611 | 54 | 74 | 8.0 | 16.0 | 0.00 | 0.05 | 0.00 | 57 | 867.0 |
| 20260506152607 | 53 | 73 | 7.0 | 15.0 | 0.00 | 0.05 | 0.00 | 61 | 866.9 |
| 20260506151607 | 53 | 112 | 9.0 | 17.0 | 0.00 | 0.06 | 0.00 | 58 | 867.0 |
| 20260506150608 | 53 | 93 | 9.0 | 18.0 | 0.00 | 0.06 | 0.00 | 59 | 867.0 |
| 20260506145608 | 52 | 79 | 10.0 | 19.0 | 0.00 | 0.06 | 0.00 | 62 | 866.8 |
| 20260506144607 | 51 | 195 | 11.0 | 20.0 | 0.00 | 0.06 | 0.00 | 65 | 866.9 |
| 20260506143609 | 51 | 103 | 9.0 | 19.0 | 0.00 | 0.06 | 0.00 | 66 | 866.8 |
| 20260506142607 | 50 | 61 | 12.0 | 16.0 | 0.00 | 0.07 | 0.00 | 67 | 866.7 |
| 20260506141610 | 50 | 54 | 12.0 | 17.0 | 0.00 | 0.07 | 0.00 | 69 | 866.6 |
| 20260506140607 | 50 | 93 | 10.0 | 17.0 | 0.00 | 0.07 | 0.00 | 69 | 866.7 |
| 20260506135608 | 49 | 100 | 8.0 | 18.0 | 0.00 | 0.08 | 0.00 | 71 | 866.6 |
| 20260506134607 | 48 | 81 | 9.0 | 19.0 | 0.00 | 0.08 | 0.00 | 73 | 866.5 |
| 20260506133608 | 48 | 86 | 9.0 | 15.0 | 0.00 | 0.09 | 0.00 | 75 | 866.5 |
| 20260506132603 | 47 | 88 | 10.0 | 15.0 | 0.00 | 0.09 | 0.00 | 75 | 866.5 |
| 20260506132038 | 47 | 89 | 12.0 | 20.0 | 0.00 | 0.09 | 0.00 | 76 | 866.3 |
| 20260506130603 | 47 | 86 | 11.0 | 15.0 | 0.00 | 0.09 | 0.00 | 77 | 866.3 |
| 20260506130049 | 47 | 87 | 11.0 | 17.0 | 0.00 | 0.10 | 0.00 | 78 | 866.3 |
| 20260506125049 | 47 | 63 | 11.0 | 19.0 | 0.00 | 0.10 | 0.00 | 78 | 866.3 |
| 20260506123604 | 47 | 69 | 10.0 | 19.0 | 0.00 | 0.10 | 0.00 | 79 | 866.3 |
| 20260506122602 | 47 | 89 | 9.0 | 14.0 | 0.00 | 0.10 | 0.00 | 80 | 866.3 |
| 20260506121602 | 47 | 76 | 9.0 | 17.0 | 0.00 | 0.10 | 0.00 | 80 | 866.3 |
| 20260506120602 | 47 | 84 | 11.0 | 16.0 | 0.00 | 0.10 | 0.00 | 80 | 866.3 |
| 20260506120048 | 47 | 90 | 10.0 | 15.0 | 0.00 | 0.10 | 0.00 | 79 | 866.3 |
| 20260506114602 | 47 | 77 | 10.0 | 15.0 | 0.00 | 0.10 | 0.00 | 79 | 866.3 |
| 20260506113603 | 47 | 63 | 10.0 | 18.0 | 0.00 | 0.10 | 0.00 | 79 | 866.3 |
| 20260506113531 | 47 | 85 | 11.0 | 20.0 | 0.00 | 0.10 | 0.00 | 79 | 866.3 |
| 20260506111559 | 48 | 50 | 12.0 | 20.0 | 0.00 | 0.10 | 0.00 | 80 | 866.3 |
| 20260506110559 | 48 | 67 | 10.0 | 16.0 | 0.00 | 0.10 | 0.00 | 80 | 866.3 |
| 20260506105559 | 49 | 73 | 10.0 | 13.0 | 0.00 | 0.10 | 0.00 | 79 | 866.5 |
| 20260506104559 | 49 | 83 | 10.0 | 17.0 | 0.00 | 0.10 | 0.00 | 77 | 866.5 |
| 20260506103600 | 49 | 90 | 10.0 | 17.0 | 0.00 | 0.10 | 0.00 | 76 | 866.5 |
| 20260506102600 | 49 | 82 | 9.0 | 15.0 | 0.00 | 0.10 | 0.00 | 76 | 866.5 |
| 20260506102522 | 49 | 80 | 8.0 | 17.0 | 0.00 | 0.10 | 0.00 | 76 | 866.5 |
| 20260506100558 | 49 | 91 | 9.0 | 15.0 | 0.00 | 0.10 | 0.00 | 76 | 866.5 |
| 20260506095558 | 49 | 87 | 9.0 | 16.0 | 0.00 | 0.10 | 0.00 | 76 | 866.5 |
| 20260506094559 | 49 | 105 | 9.0 | 16.0 | 0.00 | 0.10 | 0.00 | 75 | 866.5 |
| 20260506093559 | 49 | 74 | 9.0 | 15.0 | 0.00 | 0.10 | 0.00 | 75 | 866.5 |
| 20260506092558 | 49 | 73 | 10.0 | 15.0 | 0.00 | 0.10 | 0.00 | 75 | 866.5 |
| 20260506091559 | 49 | 67 | 9.0 | 15.0 | 0.00 | 0.10 | 0.00 | 75 | 866.5 |
| 20260506090555 | 49 | 83 | 10.0 | 18.0 | 0.00 | 0.10 | 0.00 | 76 | 866.5 |
| 20260506085556 | 49 | 58 | 10.0 | 15.0 | 0.00 | 0.10 | 0.00 | 75 | 866.5 |
| 20260506085033 | 49 | 42 | 9.0 | 13.0 | 0.00 | 0.10 | 0.00 | 76 | 866.5 |
| 20260506083556 | 49 | 77 | 8.0 | 15.0 | 0.00 | 0.10 | 0.00 | 76 | 866.5 |
| 20260506082556 | 49 | 74 | 8.0 | 13.0 | 0.00 | 0.10 | 0.00 | 76 | 866.5 |
| 20260506081556 | 48 | 73 | 8.0 | 13.0 | 0.00 | 0.10 | 0.00 | 75 | 866.5 |
| 20260506080553 | 48 | 60 | 7.0 | 15.0 | 0.00 | 0.10 | 0.00 | 76 | 866.5 |
| 20260506072555 | 48 | 52 | 9.0 | 15.0 | 0.00 | 0.10 | 0.00 | 75 | 866.5 |
| 20260506071555 | 48 | 68 | 9.0 | 13.0 | 0.00 | 0.10 | 0.00 | 75 | 866.5 |
| 20260506071029 | 49 | 77 | 8.0 | 12.0 | 0.00 | 0.10 | 0.00 | 74 | 866.5 |
| 20260506061553 | 49 | 76 | 6.0 | 13.0 | 0.00 | 0.10 | 0.00 | 72 | 866.5 |
| 20260506060553 | 49 | 108 | 5.0 | 13.0 | 0.00 | 0.10 | 0.00 | 71 | 866.5 |
| 20260506050547 | 49 | 97 | 6.0 | 11.0 | 0.00 | 0.10 | 0.00 | 70 | 866.5 |
| 20260506044545 | 49 | 108 | 8.0 | 15.0 | 0.00 | 0.10 | 0.10 | 75 | 866.5 |
| 20260506043544 | 49 | 77 | 8.0 | 14.0 | 0.00 | 0.10 | 0.10 | 76 | 866.5 |
| 20260506043028 | 49 | 80 | 7.0 | 13.0 | 0.00 | 0.10 | 0.10 | 76 | 866.5 |
| 20260506041545 | 49 | 87 | 6.0 | 13.0 | 0.00 | 0.10 | 0.10 | 76 | 866.5 |
| 20260506040544 | 49 | 80 | 6.0 | 12.0 | 0.00 | 0.10 | 0.10 | 75 | 866.5 |
| 20260506035543 | 49 | 114 | 7.0 | 15.0 | 0.00 | 0.10 | 0.10 | 75 | 866.5 |
| 20260506035027 | 49 | 95 | 9.0 | 17.0 | 0.00 | 0.10 | 0.10 | 76 | 866.6 |
| 20260506033543 | 49 | 87 | 9.0 | 17.0 | 0.00 | 0.10 | 0.10 | 78 | 866.5 |